Regional Weather Roundup
Issued by NWS Raleigh/Durham, NC

Home | Current Version | Previous Version | Text Only | Print | Product List | Glossary On
Versions: 1 2 3 4 5 6 7 8 9 10 11 12 13 14 15 16 17 18 19 20 21 22 23 24 25 26 27
000
ASUS42 KRAH 192210
RWRRAH
NORTH CAROLINA WEATHER ROUNDUP
NATIONAL WEATHER SERVICE RALEIGH NC
600 PM EDT TUE SEP 19 2017

NOTE: "FAIR" INDICATES FEW OR NO CLOUDS BELOW 12,000 FEET WITH NO
SIGNIFICANT WEATHER AND/OR OBSTRUCTIONS TO VISIBILITY.

NCZ001-053-055-056-065-067-192300-
WESTERN NORTH CAROLINA

CITY           SKY/WX    TMP DP  RH WIND       PRES   REMARKS
ASHEVILLE      SUNNY     81  58  45 N6        30.03R
JEFFERSON      CLOUDY    72  63  72 CALM      30.07S
MORGANTON      PTSUNNY   82  63  52 SW3       30.01S
HICKORY        SUNNY     81  64  56 W5        29.97S
RUTHERFORDTON  SUNNY     82  65  57 CALM      29.98R
MOUNT AIRY     SUNNY     80  66  62 CALM      29.99S
BOONE          PTSUNNY   76  55  48 W7        30.08R
$$

NCZ021-022-025-041-071-084-088-192300-
CENTRAL NORTH CAROLINA

CITY           SKY/WX    TMP DP  RH WIND       PRES   REMARKS
CHARLOTTE      MOSUNNY   84  65  52 CALM      29.96S
GREENSBORO     MOSUNNY   82  64  54 NW5       29.95S
WINSTON-SALEM  SUNNY     81  63  54 W5        29.96S
RALEIGH-DURHAM MOSUNNY   83  62  49 VRB3      29.92S
FORT BRAGG     SUNNY     85  62  45 NW7       29.91R
FAYETTEVILLE   SUNNY     86  64  47 N8        29.90S
BURLINGTON     SUNNY     83  64  52 NW7       29.94S
LAURINBURG     SUNNY     86  63  45 NW5       29.92S
$$

NCZ011-015-027-028-043-044-047-080-103-192300-
NORTHEASTERN NORTH CAROLINA

CITY           SKY/WX    TMP DP  RH WIND       PRES   REMARKS
ROCKY MT-WILSO SUNNY     82  66  58 N8        29.91R
GREENVILLE     SUNNY     81  64  57 NW5       29.92R
WASHINGTON     SUNNY     81  65  58 NW9       29.89R
ELIZABETH CITY CLOUDY    74  69  85 NW15      29.87R
MANTEO         CLOUDY    71  67  89 N13G23    29.85S
CAPE HATTERAS  PTSUNNY   75  69  81 NW13G22   29.85S
$$

NCZ078-087-090-091-093-098-101-192300-
SOUTHEASTERN NORTH CAROLINA

CITY           SKY/WX    TMP DP  RH WIND       PRES   REMARKS
LUMBERTON      SUNNY     84  64  50 NW7       29.91R
GOLDSBORO      SUNNY     84  65  52 N7        29.89R
KINSTON        SUNNY     82  64  54 N6        29.91R
KENANSVILLE    MOSUNNY   82  66  57 NW6       29.90S
NEW BERN       MOSUNNY   82  66  58 NW6       29.89S
CHERRY POINT   NOT AVBL
BEAUFORT       MOSUNNY   81  68  64 N12       29.88R
JACKSONVILLE   SUNNY     84  66  54 N10       29.89R
WILMINGTON     SUNNY     85  64  49 NW10      29.90R
$$





USA.gov is the U.S. government's official web portal to all federal, state and local government web resources and services.